STARLINK-4142 (53255 NORAD) Tracking and Keplerian Element Data

This shows tracking and keplerian element data for the satellite.

Feedback or suggestion? Click here.




ElementValue
Catalog53255
NameSTARLINK-4142
Epoch Orbit1074
Epoch Day270.25001157
Epoch Year2022
RAAN88.1291
Inclination53.2173
Eccentricity0.0001429
Argument of Perigee69.1744
Mean Anonmoly107.6014
Mean Motion15.18991789
Decay Rate-0.01060667
L11 53255U 22086P 22270.25001157 -.01060667 00000+0 -54711-1 0 9998
L22 53255 53.2173 88.1291 0001429 69.1744 107.6014 15.18991789 10748

Live tracking and technical data element details for STARLINK-4142 (NORAD 53255). STARLINK-4142 can be tracked NOW for your location showing map with azimuth and elevation plus other details from your city location.

Track the satellite on the map from your city or location and see movement details for azimuth, elevation, latitude, longitude, range, height, and movement on the map or in text.







IsCatalogInMostPopularTable: catalog: 53255, numindb: 4
Update: records affected: 1



GetName: 53255 STARLINK-4142

Hit Count: updated at: Wed, 28 Sep 2022 23:06:04 GMT